TimeCST,TemperatureF,Dew PointF,Humidity,Sea Level PressureIn,VisibilityMPH,Wind Direction,Wind SpeedMPH,Gust SpeedMPH,PrecipitationIn,Events,Conditions,WindDirDegrees,DateUTC
12:53 AM,33.1,27.0,78,30.26,9.0,NNE,6.9,-,N/A,,Overcast,30,2010-01-31 06:53:00
1:53 AM,33.1,27.0,78,30.27,9.0,NNE,8.1,-,N/A,,Overcast,20,2010-01-31 07:53:00
2:53 AM,33.1,26.1,75,30.27,9.0,NNE,5.8,-,N/A,,Overcast,20,2010-01-31 08:53:00
3:53 AM,33.1,26.1,75,30.29,10.0,NNE,8.1,-,N/A,,Overcast,30,2010-01-31 09:53:00
4:53 AM,33.1,26.1,75,30.29,10.0,NNE,5.8,-,N/A,,Overcast,30,2010-01-31 10:53:00
5:53 AM,33.1,26.1,75,30.30,10.0,North,5.8,-,N/A,,Overcast,360,2010-01-31 11:53:00
6:53 AM,32.0,25.0,75,30.30,10.0,NNE,6.9,-,N/A,,Mostly Cloudy,20,2010-01-31 12:53:00
7:07 AM,32.0,24.8,75,30.29,10.0,NNE,6.9,-,N/A,,Scattered Clouds,20,2010-01-31 13:07:00
7:53 AM,32.0,26.1,79,30.32,10.0,North,6.9,-,N/A,,Clear,10,2010-01-31 13:53:00
8:53 AM,35.1,25.0,67,30.34,10.0,NNE,6.9,-,N/A,,Clear,20,2010-01-31 14:53:00
9:53 AM,37.9,24.1,57,30.33,10.0,NNE,10.4,-,N/A,,Clear,30,2010-01-31 15:53:00
10:53 AM,42.1,21.9,45,30.33,10.0,NNE,5.8,-,N/A,,Clear,30,2010-01-31 16:53:00
11:53 AM,45.0,21.9,40,30.29,10.0,Variable,4.6,-,N/A,,Clear,0,2010-01-31 17:53:00
12:53 PM,48.0,21.9,36,30.25,10.0,NNE,6.9,-,N/A,,Clear,30,2010-01-31 18:53:00
1:53 PM,50.0,21.0,32,30.22,10.0,Calm,Calm,-,N/A,,Clear,0,2010-01-31 19:53:00
2:53 PM,53.1,19.9,27,30.21,10.0,Calm,Calm,-,N/A,,Clear,0,2010-01-31 20:53:00
3:53 PM,53.1,18.0,25,30.21,10.0,ENE,5.8,-,N/A,,Clear,60,2010-01-31 21:53:00
4:53 PM,51.1,19.0,28,30.21,10.0,ENE,4.6,-,N/A,,Clear,60,2010-01-31 22:53:00
5:53 PM,48.0,26.1,42,30.22,10.0,ENE,6.9,-,N/A,,Clear,70,2010-01-31 23:53:00
6:53 PM,45.0,26.1,48,30.22,10.0,ENE,6.9,-,N/A,,Clear,60,2010-02-01 00:53:00
7:53 PM,42.1,28.0,58,30.24,10.0,NE,5.8,-,N/A,,Clear,40,2010-02-01 01:53:00
8:53 PM,39.9,28.0,63,30.25,10.0,Calm,Calm,-,N/A,,Clear,0,2010-02-01 02:53:00
9:53 PM,39.0,28.9,67,30.23,10.0,NE,4.6,-,N/A,,Clear,50,2010-02-01 03:53:00
10:53 PM,37.0,28.9,73,30.24,10.0,Calm,Calm,-,N/A,,Clear,0,2010-02-01 04:53:00
11:53 PM,36.0,28.9,76,30.25,10.0,Calm,Calm,-,N/A,,Clear,0,2010-02-01 05:53:00